Regional Weather Roundup
Issued by NWS

Home | Current Version | Previous Version | Graphics & Text | Print | Product List | Glossary On
Versions: 1 2 3 4 5 6 7 8 9 10 11 12 13 14 15 16 17 18 19 20 21 22 23 24 25 26 27 28 29 30 31 32 33 34 35 36 37 38 39 40 41 42 43 44 45 46 47 48 49 50
000
ASUS43 KDTX 111810
RWRMI
MICHIGAN HOURLY REGIONAL WEATHER ROUNDUP
NATIONAL WEATHER SERVICE DETROIT/PONTIAC MI
200 PM EDT FRI JUL 11 2014

NOTE: "FAIR" INDICATES FEW OR NO CLOUDS BELOW 12,000 FEET WITH NO
SIGNIFICANT WEATHER AND/OR OBSTRUCTION TO VISIBILITY.

MIZ047>049-052>055-059>063-066>070-074>076-081>083-111900-
SOUTHEAST LOWER MICHIGAN

CITY           SKY/WX    TMP DP  RH WIND       PRES   REMARKS
ADRIAN         MOSUNNY   79  57  46 S5        30.23F
6HR MIN TEMP:  63; 6HR MAX TEMP:  79;

ALMA           MOSUNNY   76  51  40 S5        30.22S
ANN ARBOR      PTSUNNY   75  56  51 S8        30.22
BAD AXE        MOSUNNY   75  52  44 SW5       30.22F
6HR MIN TEMP:  58; 6HR MAX TEMP:  75;

CARO           MOSUNNY   79  56  45 SW8       30.21S
DETROIT CITY   SUNNY     78  55  44 SE10      30.22F
6HR MIN TEMP:  66; 6HR MAX TEMP:  79;

DETROIT        PTSUNNY   78  57  48 S9        30.22F
6HR MIN TEMP:  64; 6HR MAX TEMP:  79;

FLINT          SUNNY     79  55  43 S8        30.22S
6HR MIN TEMP:  63; 6HR MAX TEMP:  79;

GROSSE ILE     SUNNY     75  59  57 S9        30.21F
HILLSDALE      MOSUNNY   77  57  50 CALM      30.24S
6HR MIN TEMP:  62; 6HR MAX TEMP:  77;

HOWELL         MOSUNNY   76  55  48 SW5       30.22F
6HR MIN TEMP:  61; 6HR MAX TEMP:  76;


CITY           SKY/WX    TMP DP  RH WIND       PRES   REMARKS
JACKSON        PTSUNNY   78  57  48 S10       30.23S
6HR MIN TEMP:  61; 6HR MAX TEMP:  78;

LAMBERTVILLE   SUNNY     79  52  38 E7        30.23S
LANSING        MOSUNNY   78  57  48 VRB3      30.22F
6HR MIN TEMP:  63; 6HR MAX TEMP:  78;

LAPEER         FAIR      76  54  46 S5        30.22F
MASON          MOSUNNY   74  59  58 CALM      30.23S
MONROE         SUNNY     79  55  44 SE8       30.21F
MT. CLEMENS    PTSUNNY   76  56  49 E7        30.21F
6HR MIN TEMP:  63; 6HR MAX TEMP:  76;

PONTIAC        PTSUNNY   76  55  48 SE8       30.22F
6HR MIN TEMP:  63; 6HR MAX TEMP:  77;

PORT HOPE        N/A     71  60  68 E17       30.20F
6HR MIN TEMP:  61; 6HR MAX TEMP:  72;

PORT HURON     PTSUNNY   75  57  53 S7        30.22S
TRI CITIES     MOSUNNY   77  55  46 W5        30.22S
6HR MIN TEMP:  62; 6HR MAX TEMP:  78;

TROY           MOSUNNY   77  53  43 SE3       30.23S
SAGINAW HB     MOSUNNY   77  52  41 SW3       30.21S
$$
MIZ043>046-050>051-056>058-064>065-071>073-077>080-111900-
SOUTHWEST LOWER MICHIGAN

CITY           SKY/WX    TMP DP  RH WIND       PRES   REMARKS
BATTLE CREEK   MOSUNNY   77  56  48 S9        30.23F
6HR MIN TEMP:  63; 6HR MAX TEMP:  78;

BENTON HARBOR  SUNNY     77  56  48 SE7       30.20F
6HR MIN TEMP:  59; 6HR MAX TEMP:  78;

BIG RAPIDS     PTSUNNY   77  57  50 S8        30.20F
6HR MIN TEMP:  55; 6HR MAX TEMP:  77;

COLDWATER      MOSUNNY   77  57  49 S5        30.23S
6HR MIN TEMP:  61; 6HR MAX TEMP:  78;

FREMONT        MOCLDY    78  55  44 SW7       30.20S
HOLLAND        MOSUNNY   79  59  50 W6G17     30.21F
6HR MIN TEMP:  62; 6HR MAX TEMP:  80;

GRAND RAPIDS   PTSUNNY   79  56  45 S8        30.21F
6HR MIN TEMP:  61; 6HR MAX TEMP:  79;

IONIA          FAIR      77  52  42 SE3       30.21F
KALAMAZOO      MOSUNNY   78  56  46 SE8       30.22F
6HR MIN TEMP:  61; 6HR MAX TEMP:  79;

LUDINGTON      MOSUNNY   75  58  54 SW15      30.19S
6HR MIN TEMP:  59; 6HR MAX TEMP:  75;

MARSHALL       MOSUNNY   76  57  51 SW6       30.22S
MOUNT PLEASANT MOSUNNY   77  54  43 E7        30.21S
6HR MIN TEMP:  56; 6HR MAX TEMP:  77;

MUSKEGON       PTSUNNY   77  55  46 SW14      30.21S
6HR MIN TEMP:  62; 6HR MAX TEMP:  78;

SOUTH HAVEN    MOSUNNY   78  58  50 S6        30.20F
$$
MIZ016>042-111900-
NORTHERN LOWER MICHIGAN

CITY           SKY/WX    TMP DP  RH WIND       PRES   REMARKS
ALPENA         PTSUNNY   80  54  40 SE12      30.18F
6HR MIN TEMP:  55; 6HR MAX TEMP:  80;

BEAVER ISLAND  CLOUDY    74  54  48 SW13G24   30.15S
6HR MIN TEMP:  64; 6HR MAX TEMP:  74;

BELLAIRE       CLOUDY    79  54  42 S9        30.15F
6HR MIN TEMP:  57; 6HR MAX TEMP:  79;

CADILLAC       PTSUNNY   76  58  54 SW8       30.19F
CHARLEVOIX     CLOUDY    75  55  48 SW12      30.19S
6HR MIN TEMP:  59; 6HR MAX TEMP:  76;

FRANKFORT      MOSUNNY   76  57  51 SW12G18   30.17S
GAYLORD        CLOUDY    75  56  51 SW12      30.19F
6HR MIN TEMP:  57; 6HR MAX TEMP:  75;

GRAYLING       CLOUDY    75  56  51 S6        30.20F
6HR MIN TEMP:  54; 6HR MAX TEMP:  77;

HARBOR SPRINGS CLOUDY    75  60  58 SW5       30.15S
HOUGHTON LAKE  PTSUNNY   77  54  44 VRB7      30.20F
6HR MIN TEMP:  56; 6HR MAX TEMP:  77;

MANISTEE       CLOUDY    75  55  50 SW10G16   30.18S
OSCODA         SUNNY     78  47  34 S14G20    30.19F
PELLSTON       CLOUDY    74  56  53 SW9G16    30.16F
6HR MIN TEMP:  58; 6HR MAX TEMP:  76;

ROGERS CITY    CLOUDY    77  58  51 CALM      30.17F
TRAVERSE CITY  CLOUDY    79  55  43 SW9       30.14F
6HR MIN TEMP:  62; 6HR MAX TEMP:  79;

$$
MIZ007>008-015-111900-
EASTERN UPPER MICHIGAN

CITY           SKY/WX    TMP DP  RH WIND       PRES   REMARKS
KINROSS        CLOUDY    72  50  46 S7        30.15F
6HR MIN TEMP:  59; 6HR MAX TEMP:  73;

MACKINAC ISLAN CLOUDY    69  59  71 CALM      30.15F
6HR MIN TEMP:  59; 6HR MAX TEMP:  72;

NEWBERRY       CLOUDY    66  55  69 S15G23    30.13S
6HR MIN TEMP:  60; 6HR MAX TEMP:  67;

S. S. MARIE    CLOUDY    71  51  49 SW16G23   30.13F
6HR MIN TEMP:  54; 6HR MAX TEMP:  76;

MUNISING         N/A     72  58  61 S9        30.07S
6HR MIN TEMP:  62; 6HR MAX TEMP:  74;

$$
MIZ004>006-011>014-085-111900-
CENTRAL UPPER MICHIGAN

CITY           SKY/WX    TMP DP  RH WIND       PRES   REMARKS
MANISTIQUE     CLOUDY    61  55  81 S14       30.14R
ESCANABA       CLOUDY    70  57  64 S13       30.11R
6HR MIN TEMP:  64; 6HR MAX TEMP:  70;

MENOMINEE      CLOUDY    75  61  60 S10       30.10F
6HR MIN TEMP:  64; 6HR MAX TEMP:  77;

SAWYER-GWINN   PTSUNNY   70  61  73 S15       30.09R
$$
MIZ001>003-009>011-084-111900-
WESTERN UPPER MICHIGAN

CITY           SKY/WX    TMP DP  RH WIND       PRES   REMARKS
IRON MOUNTAIN  LGT RAIN  72  60  66 S8        30.08F
6HR MIN TEMP:  58; 6HR MAX TEMP:  72; 6HR PCP: TRACE;

HOUGHTON       LGT RAIN  67  60  78 SW14G23   30.00S
6HR MIN TEMP:  62; 6HR MAX TEMP:  71;

COPPER HARBOR    N/A     71  59  65 SW8       29.98F
6HR MIN TEMP:  67; 6HR MAX TEMP:  71;

$$

ABBREVIATIONS USED IN REMARKS
   TC - TEMPERATURE IN CELSIUS
  WCI - WIND CHILL INDEX
   HX - HEAT INDEX
  VSB - VISIBILITY




USA.gov is the U.S. government's official web portal to all federal, state and local government web resources and services.